Date String (YYYY-MM-DD hh:mm:ss) UTC,Instrument flags,Ambient pressure (hPa),Sample flow (lpm),Bypass flow (lpm),Sample temperature (°C),Ambient temperature (°C),ASC tube jacket temperature (°C),LED temperature (°C),Box temperature (°C),Sample RH (%),Span deviation,Mass concentration (μg/m³),Mass concentration (μg/m³),Mass concentration (μg/m³)
DateTimeUTC,F1_M11,P_M11,Q1_M11,Q2_M11,T1_M11,T2_M11,T3_M11,T4_M11,T5_M11,U1_M11,ZSPAN_M11,X0_M11,X2_M11,X1_M11
2022-04-06 04:00:00,,0822.6,5.00,0.00,22.3,21.4,00.0,31.6,23.9,08.2,0000.0,0012.24,0002.41,0000.81
2022-04-06 04:01:00,,0822.6,5.02,0.00,22.3,21.3,00.0,31.6,23.9,08.3,0000.0,0011.73,0002.39,0000.81
2022-04-06 04:02:00,,0822.6,5.00,0.00,22.3,21.3,00.0,31.5,23.9,08.3,0000.0,0011.14,0002.36,0000.81
2022-04-06 04:03:00,,0822.6,5.00,0.00,22.2,21.2,00.0,31.5,23.8,08.4,0000.0,0011.20,0002.37,0000.81
2022-04-06 04:04:00,,0822.6,5.00,0.00,22.2,21.2,00.0,31.5,23.8,08.4,0000.0,0010.57,0002.39,0000.80
2022-04-06 04:05:00,,0822.7,5.00,0.00,22.1,21.1,00.0,31.4,23.7,08.4,0000.0,0009.58,0002.41,0000.80
2022-04-06 04:06:00,,0822.7,5.00,0.00,22.1,21.1,00.0,31.4,23.7,08.5,0000.0,0009.41,0002.43,0000.81
2022-04-06 04:07:00,,0822.7,5.00,0.00,22.0,21.0,00.0,31.4,23.6,08.5,0000.0,0008.52,0002.45,0000.81
2022-04-06 04:08:00,,0822.7,5.00,0.00,22.0,21.0,00.0,31.3,23.6,08.5,0000.0,0008.18,0002.46,0000.81
2022-04-06 04:09:00,,0822.6,4.99,0.00,22.0,21.0,00.0,31.3,23.6,08.4,0000.0,0008.84,0002.45,0000.81
2022-04-06 04:10:00,,0822.6,5.00,0.00,22.0,21.0,00.0,31.3,23.6,08.0,0000.0,0008.90,0002.37,0000.80
2022-04-06 04:11:00,,0822.6,5.00,0.00,21.9,21.0,00.0,31.2,23.5,08.0,0000.0,0009.69,0002.40,0000.80
2022-04-06 04:12:00,,0822.7,5.00,0.00,21.9,20.9,00.0,31.2,23.5,08.2,0000.0,0010.28,0002.44,0000.81
2022-04-06 04:13:00,,0822.7,5.00,0.00,21.9,20.9,00.0,31.2,23.4,08.2,0000.0,0011.20,0002.46,0000.82
2022-04-06 04:14:00,,0822.7,5.00,0.00,21.8,20.8,00.0,31.1,23.4,08.3,0000.0,0011.94,0002.44,0000.82
2022-04-06 04:15:00,,0822.9,5.00,0.00,21.8,20.8,00.0,31.1,23.4,08.3,0000.0,0011.64,0002.43,0000.82
2022-04-06 04:16:00,,0822.9,5.00,0.00,21.8,20.7,00.0,31.1,23.3,08.5,0000.0,0011.81,0002.36,0000.83
2022-04-06 04:17:00,,0822.9,5.00,0.00,21.7,20.7,00.0,31.0,23.3,08.7,0000.0,0011.66,0002.33,0000.83
2022-04-06 04:18:00,,0823.0,5.00,0.00,21.7,20.7,00.0,31.0,23.3,08.7,0000.0,0011.64,0002.29,0000.82
2022-04-06 04:19:00,,0823.0,5.00,0.00,21.7,20.7,00.0,31.0,23.3,08.7,0000.0,0012.30,0002.38,0000.83
2022-04-06 04:20:00,,0823.1,5.00,0.00,21.6,20.6,00.0,30.9,23.2,08.8,0000.0,0011.59,0002.37,0000.83
2022-04-06 04:21:00,,0823.1,5.00,0.00,21.6,20.6,00.0,30.9,23.2,08.5,0000.0,0011.40,0002.43,0000.83
2022-04-06 04:22:00,,0823.2,4.99,0.00,21.6,20.5,00.0,30.9,23.1,08.2,0000.0,0010.58,0002.46,0000.82
2022-04-06 04:23:00,,0823.3,4.99,0.00,21.6,20.5,00.0,30.9,23.1,08.0,0000.0,0010.63,0002.50,0000.82
2022-04-06 04:24:00,,0823.3,5.00,0.00,21.6,20.6,00.0,30.8,23.2,08.2,0000.0,0009.83,0002.55,0000.82
2022-04-06 04:25:00,,0823.4,5.00,0.00,21.6,20.6,00.0,30.8,23.2,08.2,0000.0,0008.93,0002.57,0000.82
2022-04-06 04:26:00,,0823.3,5.00,0.00,21.6,20.6,00.0,30.8,23.2,08.3,0000.0,0008.82,0002.53,0000.83
2022-04-06 04:27:00,,0823.4,5.00,0.00,21.6,20.5,00.0,30.8,23.2,08.4,0000.0,0008.19,0002.49,0000.83
2022-04-06 04:28:00,,0823.4,5.00,0.00,21.6,20.5,00.0,30.8,23.1,08.5,0000.0,0008.13,0002.49,0000.82
2022-04-06 04:29:00,,0823.5,5.00,0.00,21.6,20.5,00.0,30.8,23.1,08.5,0000.0,0008.13,0002.48,0000.83
2022-04-06 04:30:00,,0823.5,5.00,0.00,21.6,20.6,00.0,30.8,23.2,08.6,0000.0,0007.53,0002.39,0000.83
2022-04-06 04:31:00,,0823.6,5.01,0.00,21.6,20.5,00.0,30.8,23.2,08.3,0000.0,0007.56,0002.44,0000.84
2022-04-06 04:32:00,,0823.6,5.00,0.00,21.6,20.5,00.0,30.8,23.2,08.4,0000.0,0008.09,0002.45,0000.85
2022-04-06 04:33:00,,0823.6,5.00,0.00,21.7,20.5,00.0,30.8,23.2,08.3,0000.0,0008.95,0002.40,0000.86
2022-04-06 04:34:00,,0823.6,5.00,0.00,21.6,20.5,00.0,30.7,23.2,08.4,0000.0,0008.44,0002.37,0000.86
2022-04-06 04:35:00,,0823.6,5.01,0.00,21.6,20.5,00.0,30.7,23.2,08.4,0000.0,0008.34,0002.27,0000.85
2022-04-06 04:36:00,,0823.4,4.99,0.00,21.7,20.5,00.0,30.7,23.3,08.4,0000.0,0008.80,0002.29,0000.85
2022-04-06 04:37:00,,0823.3,5.01,0.00,21.7,20.6,00.0,30.8,23.3,08.4,0000.0,0009.00,0002.35,0000.85
2022-04-06 04:38:00,,0823.3,5.00,0.00,21.7,20.5,00.0,30.7,23.3,08.2,0000.0,0009.29,0002.39,0000.85
2022-04-06 04:39:00,,0823.4,4.98,0.00,21.7,20.5,00.0,30.7,23.3,08.0,0000.0,0009.60,0002.37,0000.86
2022-04-06 04:40:00,,0823.3,5.00,0.00,21.7,20.5,00.0,30.7,23.3,07.9,0000.0,0009.44,0002.28,0000.86
2022-04-06 04:41:00,,0823.4,5.00,0.00,21.7,20.4,00.0,30.7,23.3,07.8,0000.0,0009.76,0002.24,0000.86
2022-04-06 04:42:00,,0823.5,5.02,0.00,21.7,20.5,00.0,30.7,23.3,07.7,0000.0,0010.25,0002.19,0000.86
2022-04-06 04:43:00,,0823.4,5.00,0.00,21.7,20.5,00.0,30.7,23.3,07.8,0000.0,0009.62,0002.17,0000.86
2022-04-06 04:44:00,,0823.4,5.00,0.00,21.7,20.5,00.0,30.7,23.3,07.8,0000.0,0008.82,0002.19,0000.86
2022-04-06 04:45:00,,0823.4,4.99,0.00,21.6,20.5,00.0,30.7,23.2,07.6,0000.0,0008.99,0002.18,0000.86
2022-04-06 04:46:00,,0823.4,5.00,0.00,21.6,20.5,00.0,30.7,23.2,07.6,0000.0,0009.30,0002.23,0000.87
2022-04-06 04:47:00,,0823.4,5.00,0.00,21.6,20.5,00.0,30.7,23.3,07.8,0000.0,0008.62,0002.13,0000.88
2022-04-06 04:48:00,,0823.5,5.00,0.00,21.6,20.5,00.0,30.7,23.3,07.8,0000.0,0008.92,0002.13,0000.88
2022-04-06 04:49:00,,0823.6,5.00,0.00,21.6,20.4,00.0,30.7,23.3,07.8,0000.0,0009.89,0002.18,0000.88
2022-04-06 04:50:00,,0823.6,5.01,0.00,21.6,20.4,00.0,30.7,23.2,07.8,0000.0,0009.90,0002.20,0000.89
2022-04-06 04:51:00,,0823.5,5.00,0.00,21.6,20.4,00.0,30.7,23.2,07.6,0000.0,0010.08,0002.24,0000.88
2022-04-06 04:52:00,,0823.4,5.00,0.00,21.6,20.4,00.0,30.7,23.2,07.2,0000.0,0009.77,0002.29,0000.89
2022-04-06 04:53:00,,0823.3,5.00,0.00,21.6,20.5,00.0,30.7,23.2,07.0,0000.0,0009.65,0002.25,0000.88
2022-04-06 04:54:00,,0823.4,5.00,0.00,21.6,20.5,00.0,30.7,23.2,06.8,0000.0,0010.27,0002.27,0000.90
2022-04-06 04:55:00,,0823.5,4.99,0.00,21.6,20.5,00.0,30.7,23.2,06.9,0000.0,0010.43,0002.28,0000.91
2022-04-06 04:56:00,,0823.7,5.00,0.00,21.6,20.4,00.0,30.7,23.1,07.1,0000.0,0010.45,0002.34,0000.92
2022-04-06 04:57:00,,0823.6,5.01,0.00,21.6,20.4,00.0,30.7,23.2,07.1,0000.0,0010.17,0002.34,0000.93
2022-04-06 04:58:00,,0823.6,4.99,0.00,21.6,21.0,00.0,30.7,23.4,07.2,0000.0,0010.11,0002.36,0000.92
2022-04-06 04:59:00,,0823.7,5.01,0.00,21.8,21.9,00.0,30.8,23.7,07.2,0000.0,0009.55,0002.25,0000.91
